GFSSGP_sfc_thetae_063.txt.gz
Theta_e
328 326 320 315 302 302 298 300 306 304 305 315 320 317 313 312 314 309 333 344 347 346 344 348 347 348 349 348 347 345 345 345 344 344 343 343 344 344 345 345 346 347 345 339 338 337 337 337 336
324 317 317 310 300 296 298 304 302 305 314 319 319 320 317 314 328 330 334 344 346 345 343 347 345 347 348 346 345 344 345 344 344 343 343 344 344 346 347 345 345 346 343 338 338 337 336 335 335
320 316 309 306 301 297 297 302 305 308 315 317 317 324 321 317 326 333 341 345 347 344 341 347 344 344 345 344 343 343 343 342 342 342 344 344 346 347 347 345 344 344 341 337 337 336 335 334 334
316 312 309 300 297 301 302 304 306 308 313 320 320 317 326 334 334 339 344 345 347 346 341 342 341 343 343 343 343 342 342 340 341 342 343 344 346 346 345 344 343 343 340 337 335 333 332 332 332
315 310 301 299 300 303 304 306 312 312 313 317 320 315 321 334 337 338 340 343 337 334 331 341 339 340 342 343 342 341 340 340 340 341 341 342 343 343 343 343 341 339 338 334 332 331 330 330 329
308 309 299 297 298 302 304 311 310 314 316 319 318 317 324 334 333 333 334 331 334 331 332 336 336 334 336 338 339 338 339 339 339 339 339 340 339 339 339 338 337 336 335 334 332 330 328 327 326
306 304 300 300 300 300 305 314 313 313 315 315 321 315 326 328 329 329 327 329 330 329 331 327 327 327 327 329 330 333 335 337 338 338 337 337 336 336 336 336 336 335 334 333 330 329 328 325 324
308 305 300 301 298 300 308 311 314 310 311 322 323 314 318 325 329 325 324 323 323 323 323 323 324 322 320 321 326 329 333 336 336 335 334 334 334 334 334 333 333 333 331 330 327 326 324 322 319
311 301 298 299 300 303 310 307 317 318 316 321 323 324 327 326 327 323 321 320 320 321 321 321 320 321 321 322 325 330 334 334 334 334 332 329 329 328 328 331 332 332 330 327 324 322 320 320 318
306 302 301 305 305 304 307 308 311 311 309 317 322 327 326 325 324 322 319 318 319 318 319 320 320 321 320 321 323 329 330 331 331 330 329 328 329 329 329 329 330 329 327 324 322 321 321 319 315
307 301 305 305 308 309 308 308 311 310 305 316 317 322 323 323 323 322 320 319 318 319 320 320 322 322 322 322 323 327 328 328 329 331 330 329 330 330 329 326 323 323 322 316 316 315 318 318 315
302 306 306 307 308 308 307 311 309 313 317 321 326 326 323 322 321 320 320 319 317 317 317 319 320 320 320 323 326 327 328 329 328 328 334 332 329 331 328 325 324 323 322 320 321 319 318 316 314
304 305 307 308 309 311 311 309 310 314 322 327 324 323 320 320 321 322 320 319 318 316 317 318 319 321 323 322 321 322 324 326 329 328 332 332 331 331 328 328 325 324 323 322 321 318 316 314 313
308 307 307 309 309 310 308 310 314 318 324 323 321 320 320 320 321 323 320 316 315 315 315 319 321 322 321 320 324 325 326 326 328 328 331 334 332 332 327 327 325 324 323 322 320 318 316 314 313
308 303 306 307 310 308 311 306 302 320 322 321 321 322 321 321 322 322 320 317 317 317 319 320 321 325 325 326 328 327 326 325 326 327 331 331 332 332 330 326 324 323 324 323 320 317 316 314 312
304 304 299 305 308 310 309 297 306 319 319 318 320 320 322 322 322 323 323 323 320 321 320 320 321 325 327 328 328 326 325 326 328 328 330 332 330 330 330 327 325 326 322 320 319 317 315 314 312
302 297 298 302 309 307 307 302 310 316 317 317 318 319 321 321 322 325 325 324 322 321 323 323 325 326 326 327 327 328 332 327 325 328 330 333 330 331 329 326 325 324 321 320 318 318 317 313 312
297 297 300 299 305 306 304 305 309 314 315 316 317 318 320 320 320 323 323 324 323 324 325 324 324 326 327 329 328 326 326 325 326 327 329 333 334 332 330 327 326 322 320 318 318 318 316 314 313
302 300 298 302 306 304 304 305 307 314 314 315 316 317 318 320 322 324 325 324 324 325 324 324 324 326 328 327 324 322 322 324 325 328 331 333 333 332 331 329 326 322 320 319 320 318 315 313 314
302 300 298 302 304 304 302 304 305 309 313 315 316 315 317 320 321 322 324 323 324 323 324 325 324 325 328 328 327 324 323 323 325 327 331 333 332 331 329 329 325 322 320 320 319 318 314 314 314
302 300 299 299 304 305 303 301 303 307 312 315 317 317 316 319 320 322 322 324 324 324 325 326 327 328 329 329 328 324 324 324 324 325 327 332 332 330 329 329 324 322 320 318 319 317 315 311 312
298 304 302 301 299 294 303 292 301 304 306 311 314 318 317 318 320 323 324 325 327 326 327 327 328 329 330 331 328 325 320 318 322 324 327 328 329 328 327 326 324 321 319 318 316 317 317 315 310
301 305 302 302 300 300 300 295 298 304 301 306 312 317 319 319 319 321 324 326 328 329 329 330 328 328 330 330 330 327 324 323 324 325 327 328 329 328 326 324 320 319 318 318 316 317 315 314 311
306 303 302 302 300 293 297 297 296 300 302 304 308 313 318 319 319 320 323 326 327 329 331 331 329 329 330 331 331 331 328 327 323 324 327 327 327 325 324 321 319 319 316 315 314 317 315 308 304
304 300 292 291 291 291 300 296 298 304 306 306 307 310 315 319 321 321 320 323 326 327 329 331 330 328 330 331 331 331 331 330 328 326 326 325 325 322 322 320 317 315 313 312 313 314 310 302 301
302 301 294 286 288 290 298 292 297 306 307 309 311 312 314 316 319 321 323 322 325 327 329 330 330 329 330 332 332 333 333 332 331 325 323 324 324 324 324 322 315 311 312 311 311 306 301 303 301
302 298 303 296 297 293 295 299 303 305 305 307 308 310 313 315 316 320 323 325 324 327 330 333 331 330 331 333 334 334 335 333 332 330 328 323 325 320 316 313 311 310 310 305 304 300 302 300 298
304 306 296 297 287 287 292 295 295 301 303 305 306 308 310 314 316 319 322 325 327 328 332 334 333 331 331 332 333 332 332 330 330 328 325 324 323 318 313 311 310 305 303 301 302 301 298 297 298
301 300 301 300 296 290 289 294 303 302 304 305 307 308 310 312 316 318 320 323 326 329 331 332 332 332 332 333 332 332 328 326 325 324 322 322 322 319 314 311 303 302 301 302 302 298 296 295 295
304 301 301 295 293 296 295 295 306 306 307 307 308 309 311 314 315 318 320 321 322 326 328 330 331 332 332 333 333 328 326 324 322 321 321 320 314 309 306 303 302 302 301 300 297 295 296 295 295

GFSSGP_sfc_thetae_066.txt.gz
Theta_e
326 322 321 315 300 300 295 298 303 303 305 315 313 312 310 312 312 308 328 330 333 328 344 349 348 349 349 349 347 346 346 346 346 345 345 345 346 347 348 347 344 343 342 339 338 337 337 335 334
323 323 317 308 297 293 295 302 301 305 310 316 315 312 311 310 329 327 332 327 327 328 343 347 345 347 348 347 346 345 346 345 345 344 345 345 346 346 347 346 342 341 341 339 338 337 335 333 333
320 319 306 302 299 294 296 302 304 306 310 312 311 318 315 320 332 333 341 339 338 342 343 347 345 345 346 345 344 344 344 343 343 343 345 345 346 347 346 344 340 341 341 338 336 335 333 332 333
315 312 307 298 296 299 301 304 305 305 312 312 311 310 326 333 333 338 340 345 342 342 344 341 343 344 345 344 344 343 342 341 342 343 345 347 347 346 345 342 340 341 339 336 334 332 331 331 331
315 308 299 297 298 301 305 305 308 307 309 310 311 308 312 321 335 337 337 334 333 335 338 334 332 341 343 344 343 342 341 341 342 343 345 345 346 345 344 340 339 339 337 333 332 330 329 329 329
306 307 297 295 298 303 305 308 310 307 309 311 310 311 313 329 328 329 333 333 331 330 329 328 331 330 339 341 340 339 340 340 340 341 342 344 344 342 341 338 337 336 335 333 330 329 327 326 326
304 302 297 298 298 301 306 312 310 311 310 312 313 309 319 322 325 326 328 330 332 331 328 324 323 325 328 330 333 334 337 338 338 338 338 338 337 337 337 336 336 335 333 331 329 327 327 324 323
307 303 298 299 298 300 308 309 313 310 307 315 316 314 312 321 324 323 323 324 325 330 329 324 322 322 321 324 329 331 335 335 336 336 335 334 334 335 335 334 334 334 332 329 327 326 324 322 320
310 299 296 299 300 303 309 307 313 315 310 312 316 323 324 323 324 321 319 319 320 320 323 324 321 319 319 320 323 327 335 334 334 333 332 329 328 328 328 331 332 332 330 328 325 323 322 319 318
304 299 299 305 304 303 306 307 308 311 306 307 309 319 323 323 322 320 318 316 316 317 319 320 320 320 321 323 319 322 329 330 329 329 327 326 324 327 328 330 330 329 328 326 325 323 321 318 308
305 299 304 305 307 307 306 306 310 307 304 308 307 316 322 324 320 319 318 317 315 317 318 319 320 321 321 321 319 325 326 328 328 328 327 327 327 326 325 323 322 321 321 314 316 316 313 314 311
302 305 305 305 307 306 305 308 307 311 311 314 313 323 321 321 319 318 317 317 316 317 318 319 320 321 320 321 323 325 325 325 324 329 328 327 326 325 323 321 321 319 317 313 315 316 314 311 311
304 304 305 307 307 307 309 307 307 311 319 323 324 322 320 321 320 320 319 317 317 316 317 318 320 320 321 321 323 324 324 324 326 328 329 327 326 325 324 323 321 319 321 318 318 314 312 311 309
306 306 306 307 306 307 306 306 311 310 309 321 321 320 321 321 321 318 317 316 316 316 316 318 319 322 320 321 322 323 324 327 327 328 330 331 327 327 324 325 322 321 321 320 318 314 312 310 309
307 302 304 305 306 306 308 303 304 311 314 318 319 319 320 321 323 317 318 316 315 315 317 317 319 321 320 319 319 320 320 325 326 327 330 331 330 329 327 324 323 321 321 320 318 314 313 309 310
303 303 297 304 306 308 306 299 306 310 311 315 318 319 319 321 321 320 317 316 316 316 318 319 320 319 320 321 318 323 323 324 325 327 328 329 329 329 327 325 323 322 321 318 315 313 311 310 308
300 294 297 300 307 306 306 301 307 309 311 311 316 318 317 319 319 320 320 318 317 318 318 316 319 320 323 324 324 325 325 325 325 326 328 328 328 328 326 325 323 321 320 317 316 314 313 309 307
296 297 299 298 304 306 302 302 305 308 312 312 314 317 316 318 319 321 321 321 320 319 316 316 318 321 324 325 327 325 325 324 324 324 326 328 326 328 327 324 323 320 318 317 314 314 313 311 308
302 299 298 301 305 304 302 303 306 309 311 313 314 315 316 316 320 323 322 320 318 320 320 320 320 324 325 322 322 321 322 322 322 323 325 330 330 330 328 324 324 320 317 315 315 315 312 309 309
301 299 298 302 305 302 301 301 306 309 310 311 313 314 316 317 318 319 320 319 319 320 322 322 323 325 324 324 323 322 322 322 322 324 325 329 330 330 329 327 324 320 318 317 316 314 310 311 310
300 298 298 299 302 303 301 298 302 306 310 311 314 315 317 317 317 319 319 320 321 321 322 322 322 323 324 325 324 323 322 321 321 322 324 329 330 329 328 327 325 320 319 317 317 315 313 309 310
297 303 302 300 298 293 302 290 300 303 305 309 311 314 314 317 318 319 320 319 320 321 323 323 323 322 324 327 324 322 318 316 319 320 323 328 330 328 328 326 325 321 318 316 315 315 312 311 307
300 305 303 301 298 298 298 295 299 303 301 304 310 314 315 316 318 318 319 322 322 323 323 324 325 324 325 326 326 324 320 320 320 322 322 326 326 326 326 325 323 317 316 315 316 313 312 311 308
305 302 302 301 298 291 296 296 295 299 302 305 310 314 316 316 318 320 322 323 324 325 325 325 325 325 326 327 327 326 323 321 319 320 321 325 325 325 325 323 318 317 315 314 315 313 311 308 302
303 298 291 290 290 290 299 296 298 303 305 307 307 313 316 317 317 318 321 323 324 325 326 326 326 324 326 328 328 326 328 324 323 321 322 324 323 321 320 320 316 315 315 314 313 311 307 302 299
300 298 292 285 285 291 298 292 297 305 308 308 309 312 314 316 318 318 318 323 324 325 327 327 327 325 326 327 329 329 328 329 326 326 325 323 322 322 321 319 317 315 313 312 310 305 301 301 302
300 297 302 295 296 292 293 299 303 305 305 306 307 310 312 313 316 319 320 321 324 325 326 328 327 327 327 327 328 328 330 328 328 328 326 323 323 323 321 319 314 310 310 309 304 301 300 300 298
301 305 296 297 286 286 291 293 295 300 302 305 305 308 311 315 317 317 320 322 323 326 327 329 329 328 329 329 329 329 330 331 330 328 325 324 323 317 315 311 310 309 305 302 301 301 299 298 297
299 298 301 299 296 290 289 292 303 302 304 304 307 308 311 313 315 317 319 323 324 325 327 329 329 329 329 329 329 329 331 328 326 323 322 322 320 318 314 312 307 303 300 301 300 298 296 295 295
302 300 301 295 293 296 294 293 305 305 307 307 307 309 312 313 314 317 319 321 322 325 326 329 330 330 330 331 329 329 328 325 322 319 318 318 314 313 309 306 302 301 301 301 297 296 296 295 294

GFSSGP_sfc_thetae_069.txt.gz
Theta_e
319 318 313 308 294 289 287 292 298 296 300 312 312 310 308 309 311 306 330 327 330 330 332 337 341 349 349 348 347 347 347 347 347 346 346 348 348 348 346 344 343 342 341 338 337 334 334 335 335
316 318 311 302 289 284 288 295 294 298 309 314 311 311 308 317 328 325 326 330 332 332 331 331 334 342 348 347 346 346 347 347 346 346 347 348 348 346 344 342 341 342 340 337 335 333 334 334 333
318 316 300 292 288 287 289 297 299 306 312 311 308 313 318 312 328 332 335 332 329 329 330 330 336 344 347 346 345 345 345 344 344 345 347 348 347 345 343 341 340 340 338 336 334 332 331 331 332
308 303 299 289 288 293 295 297 305 307 310 311 310 309 319 319 327 332 333 336 338 339 338 339 341 344 346 346 345 344 343 342 342 344 346 348 347 343 342 340 340 340 337 334 332 330 328 330 330
307 299 290 288 291 296 299 301 305 304 307 310 311 308 311 323 330 330 332 334 332 333 332 333 333 338 334 345 345 343 342 342 342 343 344 345 345 342 341 340 338 337 335 332 330 328 327 328 328
299 297 289 288 292 298 301 306 309 308 309 312 310 311 313 325 324 326 331 330 330 329 329 331 334 332 330 329 342 341 341 341 343 343 344 344 342 340 339 338 337 336 334 332 329 327 326 326 326
296 292 288 290 293 295 302 306 308 309 309 311 314 308 318 320 323 326 327 329 329 326 325 327 328 328 329 327 334 335 337 340 341 342 342 341 338 338 337 336 336 335 333 330 327 326 326 325 324
299 293 289 292 292 293 303 305 308 305 305 317 318 312 313 318 323 323 323 323 325 326 323 322 324 324 324 325 328 328 330 334 337 337 337 335 335 335 335 334 334 333 331 328 326 326 324 321 320
301 290 288 292 294 297 305 303 309 310 308 310 320 319 320 322 322 320 320 320 320 323 322 320 320 322 322 322 325 327 330 334 332 333 333 331 330 329 329 332 332 332 330 328 325 324 321 319 317
295 288 292 299 299 299 302 304 303 305 305 306 315 321 321 322 320 317 317 316 317 318 319 319 318 319 320 322 322 324 329 329 327 326 323 325 325 326 328 329 330 330 329 328 325 322 320 314 305
298 293 298 300 301 300 298 300 307 304 303 305 309 317 319 320 320 318 317 316 316 318 319 320 320 321 319 318 320 323 326 327 326 324 322 325 325 324 323 322 321 320 322 316 316 313 310 310 306
294 301 300 299 301 299 298 300 306 304 305 314 313 320 322 319 318 317 316 315 315 316 317 319 320 321 318 318 320 324 325 325 325 323 325 323 321 319 319 318 317 314 312 308 310 311 308 306 307
298 300 302 302 301 300 302 305 308 307 310 315 320 321 320 319 319 319 318 317 317 316 317 319 320 319 321 322 324 324 325 323 324 324 325 322 321 317 318 318 316 315 313 310 313 309 309 306 305
303 302 301 302 301 302 301 304 308 307 312 313 319 318 318 319 319 318 316 315 316 316 317 319 320 320 322 321 321 323 324 323 325 324 325 324 321 319 318 317 316 315 316 316 312 310 308 306 305
304 299 300 300 301 300 303 298 302 310 311 312 318 318 318 320 319 317 317 316 316 316 318 318 320 319 319 318 321 322 322 324 323 325 326 323 323 319 320 319 317 317 317 316 312 311 308 307 306
299 297 291 299 301 302 302 292 303 311 313 314 315 316 317 318 317 317 317 316 316 316 316 319 321 318 319 319 320 320 320 322 322 323 324 324 325 324 321 319 319 318 318 315 312 310 308 306 305
295 290 292 295 302 301 299 295 305 309 311 310 315 315 315 316 316 316 315 315 316 316 318 318 320 318 319 319 319 319 319 319 321 321 322 324 325 324 322 320 320 318 316 313 312 310 308 306 304
290 294 293 292 298 301 298 298 303 306 308 309 311 312 314 314 315 315 314 314 315 316 317 317 319 318 318 319 315 318 316 318 319 320 323 323 323 324 323 321 318 316 315 313 312 310 311 307 304
297 296 293 296 302 300 298 298 301 306 308 308 309 311 313 313 317 317 315 315 315 315 314 314 315 316 317 315 314 318 315 315 316 318 323 323 322 324 321 320 318 315 314 313 311 310 309 307 306
299 295 293 299 302 298 294 293 303 305 305 307 309 310 312 315 315 317 315 315 314 311 312 313 314 315 318 319 319 316 317 316 316 317 319 324 323 324 323 320 319 315 314 313 310 310 308 308 307
297 294 294 295 299 299 295 293 300 305 307 308 311 313 313 315 314 315 313 313 313 310 311 312 314 317 320 319 318 316 316 316 316 315 318 324 326 326 325 323 321 317 316 314 311 310 309 308 309
293 300 299 299 295 288 295 286 295 300 303 306 309 311 312 314 316 316 313 311 313 314 315 316 317 319 320 319 318 316 316 315 316 316 317 324 326 326 326 325 323 319 317 315 313 315 314 310 307
297 304 301 299 294 291 292 289 295 300 298 302 304 310 311 313 314 314 313 314 314 316 318 318 319 319 320 320 319 317 315 315 315 315 317 323 325 325 325 324 321 318 317 315 315 314 312 311 309
303 301 299 297 293 285 292 293 292 294 298 302 305 309 310 313 315 315 316 317 317 318 318 318 318 318 319 320 320 321 318 314 313 315 316 321 324 324 323 324 322 318 315 314 312 312 312 308 305
299 293 285 283 282 282 297 293 293 301 303 303 304 308 309 311 314 315 315 315 316 316 317 318 319 318 319 319 320 320 320 317 314 314 316 320 321 323 322 321 316 315 313 311 312 311 308 304 302
296 294 286 281 281 286 296 290 293 302 304 305 306 310 311 310 313 314 315 317 316 317 318 318 318 320 320 320 321 321 321 320 319 317 318 321 322 321 318 315 313 312 311 310 310 307 302 302 300
297 292 298 292 292 287 292 295 299 301 300 302 302 305 309 310 312 314 317 317 319 318 319 320 319 320 321 322 323 322 322 322 320 320 320 322 321 318 317 316 312 310 309 308 306 303 301 301 300
298 301 292 295 283 283 290 291 291 297 300 300 299 300 304 307 309 312 314 319 320 321 322 322 322 321 321 322 322 324 323 323 323 322 319 319 320 317 315 314 312 310 307 304 303 300 300 299 298
295 294 297 297 292 284 282 287 298 298 303 299 300 302 304 305 307 309 311 316 321 322 322 323 323 323 323 323 323 323 322 323 322 321 321 321 319 316 313 312 310 306 303 302 301 299 298 297 296
299 296 297 289 289 291 286 287 301 300 301 302 302 303 303 307 308 310 311 313 316 320 322 323 324 324 325 325 324 323 321 322 321 321 322 318 316 314 312 308 305 303 301 301 299 297 297 296 296

GFSSGP_sfc_thetae_075.txt.gz
Theta_e
318 316 309 303 290 287 284 287 291 293 296 306 309 314 314 316 311 302 326 329 332 339 344 346 346 347 347 347 347 347 348 349 349 347 347 346 346 345 344 343 342 343 343 340 340 339 339 337 336
313 313 306 295 286 281 284 289 291 295 305 310 312 317 314 314 322 322 325 330 334 335 334 340 338 341 346 346 346 346 347 348 348 347 346 346 345 344 343 341 340 342 342 340 339 337 336 336 335
310 310 298 290 283 282 284 291 294 303 309 307 305 317 314 314 325 328 331 334 332 331 332 336 335 334 337 340 339 341 344 344 347 346 346 345 344 343 342 339 338 340 341 338 336 333 334 335 333
304 300 295 288 284 288 290 294 297 301 307 308 307 307 315 319 322 328 331 333 328 330 331 335 335 335 337 339 341 339 341 342 344 345 345 344 344 342 340 338 337 340 340 335 331 331 333 333 331
302 295 287 284 286 290 293 296 298 297 304 307 306 303 309 319 326 325 330 332 334 331 333 330 334 334 334 335 336 340 340 341 342 344 343 343 343 341 339 337 336 337 336 331 330 333 335 331 329
296 292 285 283 287 293 295 297 305 302 306 309 309 308 310 320 318 325 328 326 328 329 332 330 334 333 332 330 331 334 337 338 341 342 342 342 340 339 338 336 334 333 333 331 330 333 332 330 328
293 289 285 285 288 292 294 299 304 307 308 307 313 304 312 316 319 325 326 325 324 327 329 330 331 331 331 333 332 334 335 337 339 340 339 339 337 336 336 334 333 332 330 329 328 329 331 329 327
295 293 287 287 289 289 295 300 306 306 305 314 317 309 306 315 321 323 324 322 322 323 324 324 326 326 325 326 333 335 334 334 335 335 337 336 335 334 334 332 331 330 328 327 327 326 328 329 326
295 288 284 288 288 292 295 299 306 309 307 313 317 316 316 319 321 321 320 319 319 320 322 323 323 323 323 325 329 330 333 334 334 334 335 331 330 329 327 329 329 328 326 326 324 323 327 327 325
293 287 289 294 294 296 297 299 301 303 303 306 313 318 318 319 317 317 317 316 316 318 320 321 322 322 323 324 322 324 328 329 330 330 329 328 325 325 326 328 328 326 325 325 324 321 320 320 318
292 291 294 298 298 296 293 298 305 303 300 306 308 312 316 318 317 316 317 316 316 317 318 320 321 321 321 320 321 322 325 325 325 326 326 325 326 326 324 322 320 316 316 309 310 308 305 304 307
291 296 296 297 298 294 293 301 303 302 303 312 311 316 317 316 316 316 315 315 316 316 317 319 320 319 318 319 320 322 324 324 324 324 325 323 321 319 317 316 314 309 307 307 307 306 303 303 304
293 296 297 298 298 298 304 303 304 304 311 316 316 316 316 317 317 317 316 316 317 316 317 319 318 317 316 318 320 321 323 324 324 324 323 321 319 317 314 312 309 306 307 308 306 304 303 302 302
297 297 298 299 299 298 301 303 303 304 311 310 316 315 316 316 317 315 315 315 316 317 317 319 317 317 318 318 320 320 323 323 324 323 321 319 317 315 312 310 308 306 308 309 305 304 303 302 302
298 295 296 297 297 297 302 295 300 304 308 308 314 315 316 314 317 314 315 315 316 317 319 318 317 318 318 318 319 322 322 322 322 322 320 317 316 313 311 309 309 308 309 308 306 305 303 302 302
293 293 288 293 296 298 296 290 296 306 306 307 312 313 315 316 315 315 315 316 317 318 318 319 320 318 320 320 321 323 323 322 323 321 320 317 316 315 312 311 310 311 311 309 307 305 303 302 301
289 284 288 292 297 296 293 291 297 305 305 307 312 311 312 314 314 314 315 316 317 318 319 318 320 318 320 321 321 321 321 321 323 321 320 317 316 317 314 312 312 313 312 310 309 307 305 302 301
285 287 287 289 294 295 292 292 298 304 306 308 310 311 311 313 312 316 315 316 317 317 319 319 319 319 319 318 318 318 318 320 322 322 321 319 316 317 316 314 313 314 312 311 309 307 305 304 302
292 290 288 292 297 294 294 293 298 300 305 304 308 310 310 312 314 315 316 316 316 316 317 318 317 317 317 316 315 314 314 317 318 321 320 320 319 318 317 315 314 313 312 312 310 307 306 305 302
292 289 289 293 297 294 293 293 296 300 302 305 306 307 309 312 313 311 310 314 314 314 316 317 315 316 317 317 317 317 315 315 316 317 318 320 319 319 318 316 314 314 312 309 307 307 306 305 303
292 290 290 291 294 294 292 290 295 300 303 304 306 309 310 311 310 311 310 310 313 313 315 315 315 315 317 316 313 315 315 314 313 312 315 317 319 319 318 317 315 312 311 309 308 307 307 304 305
288 295 295 293 290 285 291 283 289 296 300 302 305 305 307 310 312 311 310 308 309 312 313 313 314 314 315 315 311 312 311 310 312 313 313 316 318 318 319 318 316 313 312 309 310 309 308 307 305
292 297 295 294 290 288 288 285 289 294 295 298 303 305 306 310 312 311 310 310 310 312 312 311 312 314 315 315 312 311 309 310 311 312 312 312 316 318 319 319 316 315 313 314 312 311 308 309 309
300 296 294 292 289 283 288 287 286 290 295 298 301 305 307 309 312 312 312 312 311 309 310 310 310 310 313 314 314 311 311 311 311 310 311 311 313 317 319 319 318 318 316 313 313 312 310 309 308
295 290 283 281 281 281 291 288 290 295 297 300 301 304 306 310 311 312 311 310 311 308 308 309 309 309 311 313 315 314 313 312 312 313 313 312 312 315 318 319 319 319 319 316 314 314 312 308 307
292 291 283 280 279 282 291 287 291 299 300 301 303 306 308 309 312 312 312 310 310 308 307 308 309 309 310 312 314 316 315 315 314 314 315 314 314 315 318 319 320 320 317 316 314 313 312 309 308
291 288 295 288 287 283 287 292 297 299 297 299 300 305 306 309 312 312 313 311 310 308 307 308 309 309 311 312 314 316 316 315 315 314 312 314 313 315 317 320 320 317 313 314 313 311 308 307 306
295 298 289 288 281 280 285 287 289 294 296 296 297 302 306 310 311 313 314 313 312 310 309 309 310 311 312 313 315 316 317 317 317 315 313 312 314 315 316 315 313 312 312 310 310 308 306 306 304
292 291 293 293 288 281 280 284 294 296 297 296 297 301 306 308 310 312 313 315 314 313 312 312 312 313 314 315 316 315 314 314 316 316 314 315 316 316 316 316 315 312 310 309 308 306 304 303 301
295 292 295 286 286 287 283 286 297 298 298 296 297 300 305 308 310 312 313 313 314 314 314 313 314 315 317 318 319 317 318 317 317 317 317 317 318 318 318 319 319 313 310 309 307 303 303 302 301

GFSSGP_sfc_thetae_078.txt.gz
Theta_e
317 310 307 300 289 286 283 286 289 291 295 303 311 309 310 311 307 298 325 329 332 342 345 344 344 346 347 346 346 347 349 349 349 348 348 348 347 346 344 344 344 344 343 340 339 338 337 337 336
310 311 303 293 285 281 283 288 289 293 302 307 311 315 313 311 320 320 323 331 333 337 339 339 342 342 343 342 343 344 348 348 348 348 347 347 346 344 344 343 342 343 343 339 338 339 336 335 334
309 307 296 288 282 282 284 290 293 296 305 306 303 315 313 312 323 326 330 332 331 333 335 336 338 336 337 337 336 341 345 346 346 346 347 346 345 344 343 342 341 342 343 341 340 339 336 333 332
302 299 293 287 283 287 289 292 295 295 300 306 306 303 313 317 320 326 327 331 331 332 333 335 336 337 337 337 335 334 340 343 344 345 345 345 344 343 342 341 341 341 340 337 337 338 333 332 330
299 294 287 283 284 289 292 294 294 293 300 305 304 300 307 317 323 322 327 328 332 331 331 334 333 333 334 337 335 336 336 340 342 343 343 343 342 341 340 339 339 338 336 334 336 333 331 330 329
295 292 285 282 285 291 294 296 297 298 303 307 307 305 308 319 316 323 325 326 329 329 331 332 335 336 335 338 339 338 337 339 341 341 342 342 340 338 338 339 337 334 334 335 336 333 330 328 327
292 288 284 284 287 291 293 296 299 303 305 306 311 303 309 317 320 325 325 325 325 327 330 329 332 331 332 332 334 336 337 338 339 339 340 339 337 336 336 336 334 332 334 336 333 331 329 328 327
294 292 286 285 287 289 293 298 304 305 303 312 315 306 304 313 321 324 323 322 323 324 325 328 329 325 324 328 333 333 335 335 336 337 337 336 335 334 333 332 331 331 333 334 332 330 328 327 326
294 288 284 287 288 291 294 295 304 307 307 310 315 311 316 319 322 321 319 319 320 322 323 324 324 324 323 324 331 333 336 334 334 334 334 331 330 328 325 327 328 328 328 331 332 329 327 326 325
292 287 288 292 292 294 296 294 296 301 301 303 310 316 317 319 320 318 317 316 317 318 320 322 322 322 324 323 328 332 331 331 330 330 329 328 326 324 325 325 327 327 326 328 330 329 326 322 318
290 289 292 295 295 294 292 292 301 301 299 303 305 311 316 317 317 317 317 317 317 318 320 321 321 322 321 320 325 327 326 328 327 326 326 324 324 324 323 320 318 317 318 317 321 321 313 314 313
290 294 295 295 296 293 292 296 300 301 302 310 309 314 316 316 316 316 316 316 316 317 318 320 321 320 319 321 323 325 325 325 323 325 324 323 322 320 318 315 311 306 306 306 305 306 307 309 309
291 294 296 296 296 296 298 298 300 302 306 314 315 315 315 316 316 318 316 317 317 316 317 319 319 318 318 317 321 324 325 324 324 324 323 321 319 317 314 311 308 306 307 305 303 303 306 307 308
296 294 295 296 297 297 297 297 302 303 311 313 313 312 315 316 317 316 315 315 316 317 317 318 317 317 318 318 321 322 324 324 324 322 320 320 318 315 312 309 307 307 308 305 304 303 303 304 304
297 293 294 294 295 295 298 294 298 304 310 307 311 314 314 316 317 315 316 314 316 317 319 317 316 317 317 319 320 322 323 324 324 321 318 318 316 314 311 309 307 308 309 306 304 303 303 301 301
292 291 286 290 294 295 296 289 296 300 305 303 310 313 314 315 315 315 316 316 317 318 318 318 319 317 318 318 319 322 322 322 323 320 318 316 315 313 311 309 308 309 310 307 305 304 302 302 300
288 284 285 289 295 294 292 290 295 302 304 303 309 311 312 313 315 315 315 315 317 318 318 318 318 317 319 319 321 322 322 321 321 320 318 316 316 314 311 310 310 310 310 307 306 305 303 302 301
285 285 285 287 290 292 290 291 295 300 302 302 307 309 310 312 314 316 314 316 317 318 319 319 318 318 320 320 320 320 320 321 321 320 318 316 315 315 312 311 311 311 310 308 307 306 306 303 302
290 288 287 289 293 292 291 290 294 296 303 302 306 308 309 311 313 315 316 315 316 317 318 319 317 318 318 318 317 317 317 319 320 320 319 316 316 316 314 313 311 312 311 309 308 307 306 304 302
291 288 288 291 294 293 291 292 294 297 299 303 304 307 308 310 313 315 315 315 315 316 317 317 317 317 317 317 319 318 316 317 320 320 319 319 316 315 315 313 312 313 311 310 308 307 304 304 302
291 289 289 288 291 292 290 289 291 296 300 302 303 306 309 311 312 313 313 313 314 314 316 317 316 317 317 318 317 315 315 316 315 314 316 317 318 316 316 315 314 313 311 310 307 306 306 304 303
287 293 293 291 288 283 290 282 289 292 296 300 301 303 307 310 312 312 312 311 312 313 315 317 316 316 317 317 316 313 314 314 315 313 315 316 317 318 318 317 315 314 312 309 309 308 306 306 303
291 294 292 291 288 285 287 283 287 291 293 296 300 302 305 310 311 311 311 311 312 313 313 313 314 314 316 315 315 313 311 312 313 313 313 313 316 317 318 317 315 313 312 311 309 308 306 307 306
298 293 292 291 288 281 287 286 285 288 294 296 299 301 303 308 311 312 312 310 310 311 311 310 312 313 315 314 311 311 309 310 309 310 312 312 312 315 316 317 316 315 314 312 311 310 308 307 306
293 288 281 280 280 281 289 286 289 293 296 297 298 299 301 307 310 310 309 308 308 308 308 309 310 311 313 314 313 311 311 310 310 310 311 309 311 311 314 315 314 315 315 314 313 311 310 308 309
291 289 282 279 279 282 289 285 290 298 299 300 300 301 302 306 310 310 311 310 309 309 309 310 309 310 310 312 312 313 311 312 312 311 310 310 310 311 313 315 316 317 317 316 314 314 313 312 311
290 288 292 286 285 282 285 290 294 297 297 297 297 298 301 305 309 310 311 311 310 309 308 309 309 310 310 310 311 312 313 311 311 312 311 311 311 312 312 314 316 315 315 314 313 314 313 312 312
293 295 287 286 281 279 283 285 287 293 295 296 296 298 302 305 308 310 311 311 311 310 309 309 310 309 310 309 310 311 311 312 312 311 311 312 312 313 313 314 315 313 313 313 313 314 312 310 310
289 290 291 291 287 281 279 283 293 295 297 297 296 297 301 304 307 310 312 312 311 310 308 309 309 309 309 309 310 310 312 313 314 315 315 314 314 314 315 316 316 315 314 313 312 312 309 307 307
293 290 292 285 284 284 283 286 295 297 297 296 296 297 300 305 306 309 312 312 310 309 308 308 309 309 311 312 313 313 315 316 316 316 317 317 315 315 316 316 316 316 314 312 311 309 306 306 304

GFSSGP_sfc_thetae_081.txt.gz
Theta_e
323 314 314 308 298 297 293 294 296 297 299 305 316 312 312 317 311 305 332 335 336 344 349 349 346 348 348 348 350 350 350 350 350 348 348 348 348 348 347 346 345 344 343 340 340 339 339 337 337
316 314 310 302 295 292 294 295 296 300 304 310 320 318 316 313 324 325 329 334 336 336 345 348 345 346 347 347 348 349 350 350 349 349 349 348 347 346 346 344 343 343 343 339 339 338 338 336 335
314 310 306 298 293 292 294 296 299 300 303 305 308 318 317 316 326 329 333 334 335 336 338 343 342 343 344 343 342 344 347 344 346 348 348 347 346 346 345 343 342 342 342 338 337 337 335 334 334
309 308 301 297 292 295 296 299 300 299 304 310 310 307 317 322 327 330 331 333 334 337 337 337 338 341 343 342 341 340 340 342 343 346 346 346 346 345 344 342 341 342 342 341 336 336 333 333 332
306 303 297 293 293 295 297 299 299 299 302 309 310 306 311 319 326 327 329 329 332 335 334 336 336 338 338 338 340 339 338 339 341 344 344 344 344 344 342 341 341 341 341 340 337 333 331 331 330
304 301 295 291 292 296 299 301 300 302 305 309 309 308 312 323 321 325 328 326 330 333 333 334 334 334 335 339 337 336 338 338 340 341 342 342 342 341 341 340 338 338 338 338 335 331 329 329 328
302 299 293 292 293 295 299 302 302 304 307 309 313 308 314 318 323 327 325 327 327 330 332 335 335 336 337 336 336 334 336 337 337 339 339 339 338 338 339 337 335 336 337 336 333 331 330 329 327
302 300 293 293 293 295 299 301 308 308 305 316 316 310 311 317 323 326 325 324 325 326 331 331 331 329 330 334 332 335 335 334 336 337 337 336 336 337 335 333 335 336 336 334 332 330 329 328 327
301 297 293 294 294 297 300 300 305 311 310 313 318 318 319 321 322 322 321 322 323 324 325 329 327 326 327 331 333 334 336 335 335 336 335 332 335 334 331 330 334 336 334 332 330 329 328 326 326
300 296 295 298 298 298 300 299 301 305 307 309 314 319 320 321 321 319 320 320 321 321 322 323 326 325 326 328 333 336 333 333 333 335 331 330 330 329 327 329 332 334 332 330 329 328 326 324 322
298 296 298 299 300 301 300 298 302 304 302 307 309 315 317 319 320 320 320 320 321 321 321 322 323 325 325 328 330 332 333 332 331 329 328 327 326 327 326 324 326 330 331 328 327 325 322 322 321
296 298 299 301 301 300 298 302 303 305 305 313 312 318 318 317 319 319 319 320 321 319 320 321 322 321 322 325 327 327 331 328 327 327 326 326 325 323 323 318 319 322 326 328 326 322 322 321 319
296 298 300 300 299 299 300 300 301 304 309 315 316 317 317 318 319 321 320 320 320 319 319 320 320 320 322 322 324 326 326 326 325 325 327 325 320 318 317 315 314 314 317 321 320 319 319 319 318
300 299 299 300 301 301 299 301 305 306 311 314 315 314 317 318 319 320 318 317 318 318 319 319 318 319 321 322 324 324 323 324 324 324 325 323 319 315 313 312 312 313 315 315 315 317 318 318 318
300 297 299 300 301 300 301 298 301 307 313 313 314 316 317 318 320 318 319 317 318 319 319 317 318 319 321 321 323 324 323 324 323 322 322 323 318 315 313 312 312 313 312 312 313 314 317 316 316
297 296 293 297 298 300 301 294 302 304 310 311 313 315 315 317 318 318 318 318 318 319 318 318 318 318 321 320 322 323 324 324 323 322 322 321 319 315 315 313 315 315 313 312 310 311 313 313 313
294 290 291 293 298 299 299 296 301 306 307 308 310 313 314 315 317 317 317 317 318 320 319 317 318 318 320 320 323 323 322 323 321 322 320 320 318 318 315 315 316 317 313 313 311 310 310 309 309
290 290 291 292 296 297 296 296 300 302 306 307 310 312 313 313 316 318 317 317 318 319 320 318 317 319 320 321 322 322 322 321 322 322 320 320 318 317 316 315 314 314 313 314 313 312 311 310 309
294 292 291 294 297 296 295 295 298 302 305 305 309 312 314 315 318 319 317 317 317 319 319 318 317 318 319 318 319 319 318 320 320 321 320 321 320 318 317 317 316 316 316 316 316 314 312 309 310
294 292 292 295 297 296 296 295 300 301 303 307 308 311 314 316 316 316 317 317 316 317 319 319 318 318 319 319 319 320 319 320 320 321 320 320 321 319 318 318 317 317 317 318 315 314 312 313 312
294 293 293 292 294 297 295 293 297 301 303 305 309 312 315 316 315 315 315 315 315 316 318 318 318 318 318 320 319 318 318 318 318 318 318 321 321 320 320 320 319 319 319 318 317 316 316 313 312
290 296 295 293 292 287 295 287 294 299 300 303 306 309 312 315 318 317 315 315 315 316 319 319 319 318 319 319 318 317 316 315 317 317 318 320 322 321 320 320 320 320 320 319 319 318 317 316 313
292 297 295 295 292 290 290 288 293 296 297 301 305 307 311 315 318 317 316 316 315 316 317 318 319 319 319 319 318 317 317 318 319 319 320 322 323 322 320 321 322 322 321 321 320 319 317 318 317
298 295 294 293 291 285 289 290 291 296 299 301 304 306 309 312 316 318 318 317 314 315 315 317 317 319 320 319 320 318 319 319 317 317 320 321 322 323 324 323 322 323 323 322 321 321 320 318 318
296 292 285 284 284 283 293 290 293 299 300 302 304 306 307 312 315 316 316 313 312 313 313 314 315 317 319 318 318 319 319 320 319 320 321 321 321 321 323 324 324 324 324 323 323 322 320 320 319
293 292 286 280 282 286 291 288 293 302 304 304 305 306 306 310 314 316 316 316 314 312 312 313 315 316 318 318 317 317 319 318 318 318 320 319 321 321 322 323 324 324 324 324 324 324 323 322 321
292 289 295 288 289 287 290 294 299 302 301 302 303 303 305 308 312 315 316 317 316 314 313 313 316 317 318 318 319 318 317 318 318 318 319 320 320 319 320 322 322 323 324 324 324 323 322 321 321
296 297 288 290 281 281 287 289 291 297 299 301 303 304 305 308 312 314 315 316 317 316 316 316 317 316 317 318 319 318 318 319 319 319 319 319 320 320 320 320 321 322 323 323 323 321 322 320 318
291 291 293 293 290 284 283 288 299 300 301 302 303 304 304 308 311 314 316 317 317 317 315 315 316 316 316 316 317 318 318 319 320 319 319 319 321 321 320 320 321 321 322 322 320 319 316 315 315
295 292 293 289 287 289 289 289 300 302 303 302 303 303 303 307 312 314 316 316 316 316 315 314 315 315 317 316 316 316 318 319 318 317 319 321 321 321 319 320 320 321 320 318 315 316 314 311 310

GFSSGP_sfc_thetae_084.txt.gz
Theta_e
324 319 322 316 304 302 299 299 304 302 303 308 312 312 313 317 310 306 339 342 343 344 348 350 347 349 350 351 351 350 350 351 351 349 348 349 349 349 349 347 347 346 346 342 342 341 338 338 337
320 320 319 313 300 297 299 302 301 305 307 310 313 319 318 312 325 329 335 340 342 342 348 349 347 348 349 349 349 349 351 351 350 348 349 349 349 349 348 346 344 344 344 341 342 341 338 337 336
320 320 312 306 301 297 300 302 304 306 308 308 310 319 318 316 328 332 338 339 340 340 343 349 345 346 348 349 348 346 345 348 347 347 349 349 349 348 346 344 342 342 343 341 341 340 337 335 335
317 314 310 300 298 301 301 304 305 306 308 309 311 310 320 327 330 337 337 338 337 340 341 344 342 344 346 346 345 342 342 343 343 344 345 348 347 347 345 342 342 342 342 340 337 337 335 334 334
316 312 302 299 299 301 304 305 306 305 307 311 313 309 314 324 332 333 334 334 335 338 339 344 339 342 344 342 340 341 343 341 341 341 342 345 346 345 343 341 340 340 340 339 335 334 332 332 332
308 309 299 297 299 301 305 306 305 306 308 312 312 312 315 329 327 331 332 331 336 338 338 338 338 338 340 340 340 338 339 340 340 339 341 343 343 343 341 340 340 340 339 337 334 333 331 330 329
306 304 299 299 298 299 303 308 305 306 307 309 316 309 318 325 329 331 330 332 333 336 338 337 339 339 334 337 336 336 338 339 339 338 339 340 340 340 340 340 340 339 337 335 333 331 330 329 328
309 305 299 300 298 299 305 305 307 308 307 318 318 307 311 325 329 331 331 330 329 331 334 335 336 339 338 338 335 334 336 336 337 337 337 337 337 338 337 337 338 337 336 333 332 330 329 328 327
311 301 298 300 299 301 306 303 308 312 311 314 318 318 324 327 328 327 326 326 328 328 330 333 333 335 333 336 335 335 335 336 335 335 336 334 335 337 335 335 336 335 334 332 331 330 328 327 326
305 301 301 304 304 302 304 305 306 306 308 309 314 322 325 326 326 325 325 326 327 328 326 329 328 329 333 335 334 333 337 334 334 333 335 332 333 333 334 334 334 334 331 330 330 329 327 324 323
304 300 305 304 305 306 305 305 308 306 305 309 309 313 324 324 325 324 325 325 327 326 324 325 325 327 327 328 333 335 342 337 334 331 332 333 331 331 334 335 335 332 329 327 327 325 324 323 322
300 304 304 305 305 305 304 307 305 308 309 312 315 317 322 323 324 324 325 325 325 325 324 325 324 324 325 330 331 334 336 336 336 328 329 328 326 325 330 332 331 330 328 326 326 324 326 324 323
302 303 305 306 306 306 306 304 305 306 310 313 317 319 320 322 323 326 325 325 326 323 324 325 324 322 323 325 332 332 334 331 329 326 327 325 323 321 324 329 330 329 329 327 326 326 324 323 321
305 305 305 306 306 305 303 304 306 307 311 312 315 317 320 322 323 325 325 323 325 325 323 323 323 323 326 326 326 326 328 327 325 324 324 324 323 320 320 323 323 328 330 328 326 325 322 320 320
305 301 304 305 305 304 306 301 302 309 312 312 315 317 319 322 324 324 324 323 324 325 323 323 322 322 324 327 325 324 325 324 323 322 321 321 322 322 321 318 318 320 323 325 324 324 321 320 319
300 302 297 303 303 303 303 297 304 309 311 311 314 317 319 321 323 325 324 324 325 323 321 322 321 321 324 323 324 323 323 322 322 321 320 321 321 320 319 317 316 318 319 319 320 319 319 319 318
299 294 298 300 304 303 302 299 305 310 309 309 313 317 319 320 322 325 323 324 324 322 322 321 321 321 323 323 323 323 323 322 322 321 321 321 319 318 317 317 317 317 315 316 317 318 318 315 316
293 296 298 298 302 301 300 300 304 308 308 310 312 316 318 318 320 324 321 323 324 323 322 321 320 319 323 323 323 323 322 322 322 322 319 318 317 318 319 319 319 318 315 316 315 316 316 315 314
299 297 297 301 301 299 299 300 302 306 308 309 312 314 317 318 322 325 321 321 321 322 320 319 317 321 323 320 319 320 318 320 320 320 320 320 318 318 319 319 320 319 317 319 320 318 316 314 315
298 296 296 300 301 299 300 300 302 304 308 309 311 314 316 319 321 323 321 322 321 322 321 318 317 318 320 322 322 321 320 320 320 320 320 320 319 317 319 321 320 319 319 320 320 320 317 317 316
297 296 296 296 300 301 299 297 300 303 307 309 312 314 316 318 321 322 321 321 323 322 320 319 318 318 320 321 321 320 320 321 319 320 319 320 322 320 319 321 322 321 324 322 322 321 320 317 318
293 299 298 296 295 292 298 290 298 302 304 307 310 314 315 318 321 323 322 321 322 322 321 321 320 319 320 321 319 318 315 314 318 320 320 320 323 322 321 322 323 324 323 323 324 323 322 321 318
295 300 297 297 296 296 296 292 297 300 300 304 308 311 316 318 321 323 323 322 323 321 320 321 321 320 319 320 320 318 316 317 321 318 317 317 323 324 323 324 324 324 323 324 325 324 323 322 321
300 298 298 297 296 289 294 293 294 299 302 305 307 310 313 317 320 323 325 324 323 321 319 321 320 319 319 320 320 320 318 317 317 316 315 315 321 323 326 324 325 325 324 325 326 326 325 324 324
298 295 289 288 288 287 295 292 295 302 305 306 307 309 313 316 319 322 323 323 322 320 319 319 319 319 319 319 320 321 320 319 317 319 316 315 320 320 324 325 324 324 326 326 327 328 327 327 325
295 295 291 284 286 290 295 290 296 305 307 309 310 311 312 315 319 321 323 324 322 321 320 318 318 318 320 320 321 323 324 322 320 319 317 321 322 323 325 327 327 328 328 328 329 329 328 328 327
295 292 299 292 293 289 293 297 302 305 306 307 308 310 311 313 317 320 323 324 323 322 321 318 318 320 321 320 322 323 324 324 324 324 323 324 326 324 326 327 328 328 329 329 329 327 327 328 328
296 299 291 292 284 283 290 293 295 299 303 305 307 309 312 312 315 320 322 324 324 323 322 321 322 322 324 324 323 323 323 324 324 325 324 325 326 326 326 326 327 327 327 327 327 327 328 327 328
293 293 294 295 292 287 286 292 302 302 304 305 308 310 310 312 315 319 321 324 325 325 323 321 322 323 323 324 325 324 324 323 324 325 325 325 327 326 325 325 325 324 324 325 326 327 327 326 325
297 295 295 290 289 293 291 292 305 305 307 307 308 310 309 313 316 319 320 322 323 324 323 322 322 322 323 324 324 324 325 324 324 325 326 327 326 326 325 324 323 323 323 324 324 324 325 323 321

GFSSGP_sfc_thetae_087.txt.gz
Theta_e
326 322 321 317 305 305 301 302 307 304 305 310 312 312 312 315 310 308 339 344 346 348 349 350 347 349 351 353 351 350 351 351 351 350 349 349 350 349 348 348 347 347 347 344 343 342 341 341 341
324 319 319 313 301 299 302 307 303 307 309 311 312 315 313 311 321 327 334 342 344 347 351 350 347 348 350 351 349 349 351 351 351 349 349 350 350 349 348 347 345 346 346 343 341 340 340 339 338
324 320 313 308 304 300 301 306 306 308 310 310 309 315 316 313 325 330 342 342 343 345 348 350 346 347 349 349 348 347 348 347 348 348 349 350 349 349 348 346 344 345 345 342 341 339 338 336 336
318 316 312 301 300 305 304 307 307 308 310 311 311 309 319 329 327 337 340 341 340 342 347 346 343 346 348 346 346 345 343 343 343 346 347 348 347 347 344 343 343 343 344 342 340 338 336 335 335
317 313 304 302 303 306 306 308 308 307 308 311 312 309 313 327 335 337 338 338 338 341 345 348 342 343 347 348 344 340 339 339 335 333 341 344 344 345 343 342 342 342 342 341 338 336 334 334 333
308 310 302 300 303 305 306 309 307 308 310 311 312 311 314 331 331 334 336 335 338 339 342 345 341 339 340 343 341 338 339 335 334 335 340 341 342 341 341 341 340 340 338 338 336 335 333 332 331
307 306 302 303 303 304 305 310 307 307 308 309 315 309 317 328 331 335 334 335 337 339 341 344 345 340 334 338 338 337 337 337 338 336 337 337 339 338 339 340 339 338 337 336 334 333 332 331 330
310 307 302 304 302 302 307 308 310 308 308 317 316 309 310 328 333 334 334 334 334 336 339 340 343 343 340 341 334 334 335 334 335 336 335 334 336 337 338 338 338 337 336 334 332 331 331 330 328
313 302 300 303 303 304 308 306 310 312 310 312 315 316 324 330 331 331 331 330 332 333 335 338 339 339 339 340 339 335 334 335 334 334 332 326 335 336 338 336 335 335 333 332 331 330 328 327 327
307 303 303 308 308 305 306 307 308 308 308 310 312 317 323 328 328 327 328 328 331 330 333 335 336 337 338 336 338 338 338 337 337 334 334 333 333 335 337 336 333 333 331 331 330 328 327 324 323
307 302 307 308 308 308 306 307 310 307 305 309 309 313 317 325 326 326 327 328 330 330 331 332 330 330 336 337 336 335 337 336 335 334 333 331 332 332 337 335 333 331 329 326 325 323 321 322 321
303 307 307 308 309 307 305 308 306 308 309 313 313 315 317 318 324 325 326 328 328 328 327 329 328 326 327 328 331 336 338 337 333 331 330 330 330 330 334 333 331 328 326 325 322 322 326 324 322
305 306 307 308 308 307 308 306 306 307 311 313 313 313 316 319 322 326 327 329 328 328 325 327 328 325 326 327 330 331 335 337 333 332 330 330 329 328 329 330 330 326 327 326 323 325 323 323 322
307 306 306 308 308 308 306 306 307 308 311 311 312 313 316 319 323 325 327 327 326 327 326 326 327 327 326 324 326 331 333 334 332 330 329 327 325 327 328 329 327 329 328 327 326 325 323 321 321
307 303 305 306 307 306 308 303 304 310 311 309 311 314 318 320 324 324 327 327 327 327 328 326 326 326 325 328 326 327 330 328 327 324 323 323 323 323 324 327 328 329 329 330 328 325 322 319 319
302 303 298 305 308 308 307 299 307 311 309 308 312 315 318 320 323 326 328 327 327 327 326 324 324 323 325 325 325 325 324 323 322 322 322 321 320 320 320 323 327 330 329 327 324 322 319 320 318
301 295 298 301 309 306 304 301 308 310 309 309 311 314 318 320 323 326 328 327 327 327 326 323 322 321 323 324 324 322 321 320 320 319 319 319 319 319 319 321 322 324 323 323 323 322 321 319 318
294 295 298 299 306 307 303 303 307 309 309 310 311 314 317 320 322 325 327 326 327 327 325 323 321 321 324 323 322 320 319 319 319 318 318 318 318 319 319 319 318 318 317 320 319 320 322 320 318
299 298 298 303 307 303 302 303 305 308 308 308 310 312 315 319 322 325 327 326 327 326 323 322 320 320 322 320 318 317 317 318 317 317 318 319 320 319 319 317 318 316 316 317 321 321 320 317 318
298 297 297 301 305 303 301 302 305 308 308 308 309 312 314 318 321 324 326 325 326 325 324 321 320 321 321 321 319 318 317 317 317 318 319 319 318 318 320 321 319 320 318 319 320 321 318 316 319
296 296 297 297 302 304 301 299 302 307 309 309 309 312 313 316 320 322 324 324 323 323 322 321 321 321 323 322 321 319 319 319 318 317 316 318 318 317 320 325 321 322 321 321 323 324 321 317 318
293 300 299 298 297 293 302 292 301 305 305 307 308 311 313 315 320 323 324 324 324 325 323 324 322 320 322 323 320 317 314 313 316 315 315 318 321 319 317 320 323 321 322 323 323 324 325 324 318
296 301 298 299 297 296 297 294 299 304 303 305 309 311 314 316 319 323 325 325 326 327 322 323 322 320 321 322 320 318 315 314 315 316 317 320 322 322 320 319 323 326 325 326 327 327 324 324 322
301 298 298 298 296 290 296 296 297 301 303 306 309 310 312 315 319 322 326 327 327 327 325 323 321 320 321 321 320 318 317 315 316 315 316 318 319 320 321 322 326 326 327 327 328 328 326 326 326
297 294 289 288 289 288 298 296 299 304 306 307 308 310 312 315 317 321 325 325 326 325 323 321 320 319 320 320 321 320 318 317 318 316 316 314 315 317 320 323 327 326 327 327 327 328 327 328 326
295 294 288 284 288 292 299 293 298 306 308 309 310 311 313 315 317 320 324 325 325 325 323 320 319 319 320 320 321 322 321 318 319 320 317 314 315 317 322 327 326 326 327 327 328 328 329 330 329
295 292 297 292 295 291 295 299 304 306 307 308 309 310 311 313 316 319 323 326 326 326 324 322 319 320 321 321 321 321 322 323 321 320 319 316 316 316 318 327 325 327 328 329 329 328 329 330 330
293 297 289 292 285 284 291 293 295 301 304 307 308 309 312 313 315 319 321 326 327 326 326 324 323 322 322 322 322 323 324 324 325 324 321 322 319 321 323 325 327 327 328 330 329 328 329 328 329
292 291 294 294 292 286 286 292 304 303 306 306 308 310 312 314 315 318 321 325 327 326 326 324 323 322 324 322 323 323 323 326 327 326 325 325 323 324 325 325 326 327 328 329 327 328 328 326 327
298 295 294 289 289 293 292 292 305 306 307 309 309 311 312 315 317 318 322 324 325 325 326 324 323 322 326 327 325 324 323 324 324 327 328 328 326 327 326 326 326 326 326 327 326 326 325 325 325

GFSSGP_sfc_thetae_090.txt.gz
Theta_e
327 322 318 315 303 303 299 302 307 305 305 310 311 310 308 312 308 309 338 343 347 349 347 346 348 351 352 352 351 350 351 351 351 350 349 350 349 349 349 348 347 347 348 346 345 344 343 342 342
320 319 316 310 300 296 299 306 304 306 309 311 310 310 310 309 320 329 336 341 345 348 352 349 346 348 351 352 350 350 350 351 351 350 350 350 349 349 349 348 346 346 346 344 344 343 342 341 342
321 321 309 306 301 297 299 306 306 308 310 309 308 313 313 314 324 332 341 342 342 345 348 348 345 346 348 350 350 349 349 348 348 349 350 350 349 349 349 346 345 345 346 343 342 342 339 339 339
317 313 310 301 298 303 304 307 308 307 310 311 310 306 316 327 323 337 340 340 340 344 347 345 345 346 348 348 349 348 347 345 343 335 329 348 349 348 347 344 343 344 344 342 340 339 337 337 337
315 311 302 300 301 305 308 308 308 306 308 310 311 307 312 325 335 337 338 338 340 344 347 348 343 345 347 348 348 347 344 341 338 333 330 333 345 344 343 343 343 342 343 341 338 336 336 335 335
307 308 298 297 301 306 307 308 308 307 308 309 310 310 313 328 330 335 338 337 343 344 346 345 342 342 344 346 344 341 338 337 332 333 331 331 338 340 340 341 341 342 341 339 337 335 335 334 333
305 303 299 300 302 304 307 309 307 307 307 308 313 308 318 325 331 336 336 337 340 343 343 344 343 340 339 340 339 336 338 334 335 333 330 331 336 337 339 338 340 340 339 337 335 334 333 332 331
308 305 300 301 300 302 309 308 309 308 306 315 316 308 312 326 333 333 333 334 336 338 340 341 342 339 339 338 337 336 336 335 333 334 332 331 335 335 337 337 338 337 337 335 333 333 332 331 329
312 301 297 300 302 304 309 305 310 312 308 310 312 313 322 331 332 330 332 332 333 335 336 337 335 340 339 339 335 335 337 336 335 335 333 331 332 333 335 334 335 335 334 333 332 331 329 328 326
305 300 300 306 307 306 307 306 307 307 307 308 310 315 321 328 326 325 326 327 330 331 333 334 334 336 338 337 335 335 336 335 333 332 330 331 331 332 334 333 333 333 332 331 330 329 327 325 320
305 301 305 306 309 309 307 306 308 306 304 308 308 311 316 324 324 324 325 326 330 332 331 332 331 332 335 335 335 335 335 333 333 331 331 329 331 331 331 331 330 328 329 326 325 323 320 318 317
302 306 306 307 309 307 305 308 305 306 307 311 312 315 315 315 319 322 323 325 326 330 329 330 328 328 330 332 332 333 333 333 331 331 331 328 330 330 330 328 327 324 323 321 319 318 318 317 319
304 305 307 308 308 307 307 305 305 306 310 313 312 312 312 314 316 319 325 326 328 328 327 327 327 326 327 328 331 330 331 333 331 331 331 329 329 328 329 328 323 321 320 318 316 319 318 317 317
307 306 306 307 307 307 305 305 307 307 312 310 310 309 310 312 315 319 324 325 328 328 326 327 326 327 326 326 327 330 330 332 332 330 330 329 329 328 328 326 321 321 322 318 319 319 319 317 317
307 303 305 305 306 305 307 303 303 309 311 309 310 310 311 313 318 321 324 327 328 328 327 326 325 325 327 326 327 328 330 330 330 330 329 329 329 328 327 325 321 322 323 320 323 320 319 318 318
302 302 297 303 305 306 306 298 306 310 310 309 309 309 311 314 319 323 325 328 327 327 325 325 324 323 326 326 327 328 328 328 325 324 328 327 327 326 326 324 325 324 324 323 321 318 316 315 316
299 294 297 300 306 305 305 301 306 310 309 307 308 309 312 316 320 323 326 327 326 326 325 323 323 322 324 325 324 322 322 322 323 322 322 323 324 323 324 324 324 325 324 322 320 318 317 314 314
293 295 297 297 302 304 303 302 305 308 308 308 309 310 312 315 319 323 326 327 326 327 324 322 321 323 324 321 319 319 319 318 319 319 319 319 319 319 319 319 320 320 320 320 318 316 318 315 313
297 296 296 299 304 302 302 303 304 307 309 308 309 310 311 314 320 324 326 326 326 326 323 320 320 322 322 318 316 315 314 315 316 317 317 317 317 317 317 317 316 316 315 316 316 317 316 313 316
296 294 294 298 302 301 301 301 304 306 307 308 308 308 311 313 317 322 325 325 325 324 322 320 320 322 321 319 318 316 315 314 315 316 316 316 316 317 316 315 314 314 313 314 316 315 313 313 313
296 294 294 294 300 302 300 298 301 305 307 309 310 311 310 313 316 320 323 323 325 322 320 320 319 321 321 320 318 317 315 314 312 313 314 315 316 317 316 315 314 314 314 314 315 317 312 310 312
292 298 297 296 294 290 300 290 299 303 305 307 309 310 310 312 317 321 323 323 323 324 321 320 321 321 321 319 316 314 311 310 312 312 313 315 317 316 316 315 317 315 316 317 317 320 316 316 311
294 299 297 297 294 294 294 292 296 302 301 304 308 309 310 314 315 320 323 324 324 324 321 320 321 321 321 319 317 314 312 313 314 314 313 313 314 315 316 320 319 319 318 319 319 320 321 319 318
301 297 297 296 294 286 293 293 293 297 302 306 308 309 311 313 315 321 324 325 324 325 322 320 319 319 321 320 318 315 313 313 313 312 312 313 314 316 316 318 319 319 319 320 321 321 321 320 319
297 294 286 284 284 285 295 293 296 302 305 307 308 309 313 313 315 318 323 323 323 324 321 320 319 317 320 320 319 316 314 314 313 312 312 312 314 317 318 318 317 319 321 322 323 321 321 320 319
294 293 287 280 283 287 296 291 296 305 307 309 309 311 313 313 316 318 323 323 324 324 322 319 319 318 319 320 320 318 316 315 315 314 314 314 314 315 318 319 320 320 321 322 322 321 321 321 320
294 290 296 290 291 287 291 296 302 306 305 307 308 309 310 313 315 316 322 324 324 324 322 320 319 319 319 319 320 320 318 316 316 315 316 315 315 316 317 319 319 321 321 322 321 320 321 321 322
294 298 289 290 281 280 287 291 293 301 303 306 307 309 311 312 313 316 320 324 325 325 323 321 319 319 319 319 320 320 320 319 318 318 315 316 315 315 316 318 319 319 320 322 322 321 321 321 322
290 288 290 290 289 284 283 289 302 302 304 306 308 310 312 313 314 316 319 325 325 326 323 321 320 319 319 320 320 320 320 320 318 318 319 317 316 315 315 316 317 319 320 321 321 322 321 322 321
296 290 290 285 286 291 289 288 302 304 306 309 308 311 313 314 315 316 319 324 324 324 324 322 321 320 320 320 320 320 321 321 320 319 319 320 318 317 316 316 316 317 320 321 320 321 321 320 319